Simultaneous Nadir Overpasses (SNOs) Predictions

Prediction of SNOs between METOP-B and NOAA-19 Satellite Orbit:

Table of predicted SNOs for the next 14.0 days since TLE Epoch: 10/26/2018
Index Date (METOP-B) Time (METOP-B) Lat,Lon (METOP-B) SZA (METOP-B ) Date (NOAA-19) Time (NOAA-19) Lat,Lon (NOAA-19) SZA (NOAA-19 ) Distance(km) Time Diff (sec)
1 11/06/2018 03:09:38 78.81, 144.75 95.11 11/06/2018 03:08:29 78.77, 144.78 95.07 3.86 69
2 11/06/2018 04:00:20 -78.78, -48.11 84.92 11/06/2018 03:59:32 -78.79, -48.09 84.92 1.35 48
3 11/06/2018 04:51:00 78.79, 119.31 95.11 11/06/2018 04:50:30 78.77, 119.29 95.09 2.15 30
4 11/06/2018 05:41:42 -78.76, -73.56 84.92 11/06/2018 05:41:33 -78.79, -73.59 84.90 3.14 9
5 11/06/2018 06:32:22 78.77, 93.86 95.11 11/06/2018 06:32:31 78.77, 93.79 95.11 1.56 9
6 11/06/2018 07:23:03 -78.78, -98.76 84.87 11/06/2018 07:23:33 -78.75, -98.84 84.90 3.51 30
7 11/06/2018 08:13:44 78.76, 68.42 95.11 11/06/2018 08:14:32 78.77, 68.30 95.13 2.90 48
8 11/06/2018 09:04:25 -78.77,-124.21 84.87 11/06/2018 09:05:34 -78.75,-124.34 84.88 3.10 69




NCC Satellite Simultaneous Nadir Overpasses (SNOs) Prediction Service
